Weather History for KLSV - May, 2014

Change the Weather History Date:

Saturday, May 10, 2014

  Actual Average Record
Temperature  
Mean Temperature 74 °F -  
Max Temperature 87 °F 86 °F 102 °F (2001)
Min Temperature 59 °F 60 °F 50 °F (2011)
Cooling Degree Days 10    
Growing Degree Days 24 (Base 50)    
Moisture  
Dew Point 31 °F    
Average Humidity 22    
Maximum Humidity 40    
Minimum Humidity 10    
Precipitation  
Precipitation 0.00 in - - ()
Sea Level Pressure  
Sea Level Pressure 29.60 in    
Wind  
Wind Speed 14 mph (WSW)    
Max Wind Speed 39 mph    
Max Gust Speed 51 mph    
Visibility 9 miles    
Events      
Averages and records for this station are not official NWS values.
T = Trace of Precipitation, MM = Missing Value Source: NWS Daily Summary

Daily Weather History Graph

Daily Weather History Graph

Search for Another Location

Airport or City:

Trip Planner

Search our weather history database for the weather conditions in past years. The results will help you decide how hot, cold, wet, or windy it might be!

Date:

Astronomy

May. 10, 2014 Rise Set
Actual Time 5:38 AM PDT 7:35 PM PDT
Civil Twilight 5:09 AM PDT 8:03 PM PDT
Nautical Twilight 4:35 AM PDT 8:38 PM PDT
Astronomical Twilight 3:58 AM PDT 9:15 PM PDT
Moon 3:42 PM PDT (5/10) 3:05 AM PDT (5/10)
Length of Visible Light 14h 54m
Length of Day
13h 57m
Waxing Gibbous, 83% of the Moon is Illuminated
May 10
Waxing Gibbous
May 14
Full
May 21
Last Quarter
May 28
New
Jun 5
First Quarter

Hourly Weather History & Observations

Time (PDT) Temp. Dew Point Humidity Pressure Visibility Wind Dir Wind Speed Gust Speed Precip Events Conditions
12:58 AM 72.7 °F 34.3 °F 25% 29.72 in 10.0 mi South 15.0 mph - N/A   Clear
1:58 AM 70.7 °F 34.7 °F 27% 29.71 in 10.0 mi SSW 10.4 mph - N/A   Clear
2:58 AM 68.4 °F 35.4 °F 30% 29.71 in 10.0 mi South 10.4 mph - N/A   Clear
3:58 AM 67.6 °F 36.3 °F 32% 29.71 in 10.0 mi South 9.2 mph - N/A   Clear
4:58 AM 67.3 °F 36.0 °F 32% 29.71 in 10.0 mi SW 5.8 mph - N/A   Clear
5:58 AM 62.4 °F 34.9 °F 36% 29.73 in 10.0 mi Variable 3.5 mph - N/A   Clear
6:58 AM 64.6 °F 35.2 °F 34% 29.74 in 10.0 mi ENE 4.6 mph - N/A   Clear
7:58 AM 69.3 °F 35.6 °F 29% 29.73 in 10.0 mi Calm Calm - N/A   Clear
8:58 AM 72.9 °F 34.5 °F 25% 29.72 in 10.0 mi East 4.6 mph - N/A   Clear
9:58 AM 74.7 °F 35.1 °F 24% 29.70 in 10.0 mi Variable 1.2 mph - N/A   Clear
10:58 AM 78.3 °F 34.5 °F 21% 29.69 in 10.0 mi South 2.3 mph - N/A   Clear
11:58 AM 80.8 °F 28.6 °F 15% 29.66 in 10.0 mi Variable 4.6 mph - N/A   Clear
12:58 PM 82.4 °F 23.4 °F 11% 29.62 in 10.0 mi SSW 9.2 mph - N/A   Clear
1:58 PM 84.2 °F 27.0 °F 12% 29.58 in 10.0 mi SW 11.5 mph 18.4 mph N/A   Clear
2:58 PM 85.3 °F 31.6 °F 15% 29.53 in 10.0 mi SSW 13.8 mph 19.6 mph N/A   Clear
3:42 PM 87.8 °F 32.0 °F 14% 29.54 in 10.0 mi SSW 18.4 mph 35.7 mph N/A   Clear
3:58 PM 87.1 °F 33.3 °F 15% 29.47 in 10.0 mi SSW 21.9 mph 29.9 mph N/A   Clear
4:13 PM 86.0 °F 33.8 °F 15% 29.52 in 10.0 mi SW 26.5 mph 32.2 mph N/A   Clear
4:58 PM 86.0 °F 32.2 °F 14% 29.43 in 10.0 mi SSW 20.7 mph 31.1 mph N/A   Clear
5:58 PM 84.2 °F 28.9 °F 13% 29.40 in 10.0 mi SW 25.3 mph 27.6 mph N/A   Clear
6:58 PM 82.9 °F 21.4 °F 10% 29.39 in 10.0 mi SW 20.7 mph - N/A   Clear
7:58 PM 79.7 °F 23.4 °F 12% 29.38 in 10.0 mi SSW 20.7 mph - N/A   Clear
8:38 PM 78.8 °F 23.0 °F 13% 29.46 in 10.0 mi WSW 17.3 mph 25.3 mph N/A   Clear
8:58 PM 78.6 °F 20.3 °F 11% 29.43 in 10.0 mi West 19.6 mph 35.7 mph N/A   Clear
8:59 PM 78.8 °F 21.2 °F 12% 29.50 in 10.0 mi West 20.7 mph 35.7 mph N/A   Clear
9:46 PM 75.2 °F 30.2 °F 19% 29.55 in 9.0 mi West 38.0 mph 43.7 mph N/A   Partly Cloudy
9:51 PM 73.4 °F 30.2 °F 20% 29.56 in 6.0 mi WNW 28.8 mph 44.9 mph N/A   Haze
9:56 PM 73.4 °F 32.0 °F 22% 29.57 in 5.0 mi WNW 20.7 mph 44.9 mph N/A   Haze
9:58 PM 73.4 °F 30.4 °F 20% 29.52 in 5.0 mi WNW 18.4 mph 44.9 mph N/A   Haze
10:03 PM 73.4 °F 30.2 °F 20% 29.58 in 5.0 mi NW 10.4 mph - N/A   Haze
10:08 PM 73.4 °F 30.2 °F 20% 29.59 in 6.0 mi NNW 13.8 mph 17.3 mph N/A   Haze
10:13 PM 73.4 °F 32.0 °F 22% 29.61 in 8.0 mi Variable 3.5 mph 17.3 mph N/A   Mostly Cloudy
10:18 PM 71.6 °F 32.0 °F 23% 29.62 in 10.0 mi East 11.5 mph - N/A   Scattered Clouds
10:20 PM 71.6 °F 32.0 °F 23% 29.62 in 10.0 mi NE 21.9 mph 26.5 mph N/A   Scattered Clouds
10:25 PM 69.8 °F 32.0 °F 25% 29.63 in 9.0 mi NNE 21.9 mph 35.7 mph N/A   Scattered Clouds
10:35 PM 68.0 °F 32.0 °F 26% 29.66 in 6.0 mi NNE 32.2 mph 40.3 mph N/A   Haze
10:40 PM 68.0 °F 32.0 °F 26% 29.66 in 5.0 mi NNE 39.1 mph 50.6 mph N/A   Haze
10:45 PM 66.2 °F 32.0 °F 28% 29.67 in 6.0 mi NNE 34.5 mph 50.6 mph N/A   Haze
10:50 PM 66.2 °F 32.0 °F 28% 29.68 in 9.0 mi NNE 33.4 mph 42.6 mph N/A   Partly Cloudy
10:55 PM 66.2 °F 32.0 °F 28% 29.69 in 10.0 mi NNE 26.5 mph 42.6 mph N/A   Scattered Clouds
10:58 PM 66.0 °F 32.9 °F 29% 29.65 in 10.0 mi NNE 21.9 mph 39.1 mph N/A   Scattered Clouds
11:58 PM 59.9 °F 35.2 °F 40% 29.70 in 10.0 mi NE 27.6 mph 42.6 mph N/A   Partly Cloudy